CZ-6A DEB, 61292

Orbit data source: Space-Track

CZ-6A DEB, 61292 is space debris in LEO originally from a launch on Tue, 06 Aug 2024 UTC launched from the Taiyaun Space Center, China (TSC). Debris objects in space refer to the collection of defunct objects orbiting the Earth. Examples of debris include non-operational satellites, rocket bodies, and fragments generated from explosions, collisions, or faulty payload assembly.

Loading next visibility...
Identifier
61292, 2024-140TD
Orbit
LEO
Country
Flag of CNCN / PRC
Related business
Manufacturer
SAST
Mission
Spacecraft
Bus & Motor
Unknown
Mass
Unknown
Launch date (UTC)
2024-08-06 (2 years ago)
Launch vehicle
Unknown
Launch site
Taiyaun Space Center, China (TSC)
Object type
Payload
Rocket body
Debris
Shape & HBR
Unknown shape, 0.1 m
Radar Cross Section
Medium (>0.1 m² and <1 m²)

Expand to show TLE details & history
Last TLE update: 15 hours ago

TLE from 15 hours ago
0 CZ-6A DEB
1 61292U 24140TD  26171.24865313  .00001591  00000-0  35732-3 0  9999
2 61292  89.0408 273.5657 0094150 267.0466  91.9965 14.53374892 95836
Epoch: 2026-06-20T05:58Z
TLE epoch observation values (Epoch: 2026-06-20T05:58:03.630Z)
Latitude
-0.00006°
Longitude
-84.41542°
Altitude
720.703 km
Speed
7.493 km/s
True Right ascension
18h 14m 15s
True Declination
0° 00' 00"
Sunlit
Object was in full shadow at epoch
Visualization orbit readout
Latitude
Unknown
Longitude
Unknown
Altitude
Unknown
Speed
Unknown
Apparent Right ascension
Unknown
Apparent Declination
Unknown
Sunlit
N/A
Visualization observer readout
Local Sidereal Time
07:24:12
Azimuth
Unknown
Elevation
Unknown
Doppler factor
Unknown
Orbital elements
Apogee altitude
778.299 km
Perigee altitude
644.801 km
Semi-major axis
7,089.687 km
Eccentricity
0.00942
Inclination
89.0408°
RAAN
273.5657°
Arg. of periapsis
267.0466°
True anomaly
93.07422°
Mean anomaly
91.9965°
Eccentric anomaly
92.53541°
Mean motion
3.63582 °/min
Orbital period
99.01 mins
BSTAR
0.00035732
Loading maneuver chart data...
Computing Atmospheric mass density...
Loading historical data...
Loading historical data...
Loading historical data...
Loading historical data...
Loading historical data...
Loading historical data...
Loading historical data...

Documentation

Showing up to 5 results
|